Airfield :
LOGIN :

Register | Disclaimer

   EN    FR    IT 

 










Legend :    VFR   Marginal VFR   IFR   Intensive IFR   Very Intensive IFR
Visi :
Ceiling :
>= 8 km
>= 3000ft
5 to 8 km
1000 to 3000 ft
1500m to 5 km
500 to 1000 ft
800 to 1500m
200 to 500 ft
< 800m
< 200 ft
Symbols :   Thunderstorms  Fog  Heavy snow  Heavy precipitations  Wind > 20 kt
SIGMETs :     Misc.  Thunderstorms  Icing  Turbulence  Mountain Waves  Volcanic Ashes







- Airport Elevation : 80 ft
- IATA code : LPL
- Download approach charts


EGGP - Liverpool John Lennon

CURRENT METAR :
  • 241220Z 28011KT 250V330 CAVOK 21/08 Q1026

EXPIRED METARs :
  • 241150Z 27012KT CAVOK 21/09 Q1026
  • 241120Z 27011KT CAVOK 21/10 Q1026
  • 241050Z 29009KT 240V330 9999 FEW034 19/10 Q1026
  • 241020Z 29009KT 240V330 9999 FEW034 20/11 Q1026
  • 240950Z VRB07KT 9999 FEW022 18/10 Q1026

TAF AMD TAF EGGP
Valid from the 24 at 12:00 until the 25 at 12:00 UTC


241203Z 2412/2512 27008KT CAVOK
ATIS : +44 151 907 2000 (option 5 or ext 5150)
Met : +44 871 750 5150
No reported NOTAMs for that airfield.



MET'MAP, your aeronautical weather chart ! - Copyright ORBIFLY December 2007 - Disclaimer

ORBIFLY MET'MAP TEAM :

Programming & Development : Alexandra Zaïnal
Concept & Development : Baudouin d'Aumeries
Co-Development & Prog : Marc-Olivier Méhu
Technical & hardware support : Manuel Goepfert

Contact : metmap@orbifly.com




SOURCES & CREDITS :

   NOAA